Cheyenne — 9HAK5 — position and weather

sailwx.info

Track history (hours):
 
Tides and Currents Weather Stations Pressure Air Temp Water Temp Dewpoint Dewpoint Depression Visibility Wind Speed Wind Dir Waves Ship Positions

Cheyenne

Last reported at 2014-Nov-26 14:29 UTC. Time now 2014-Dec-18 12:31 UTC.
Position N 44°35' E 035°03'.
Warning: this ship's position is 21 days out of date.

Length 133 m; draft 3.8 m.

Type: Cargo ship. MMSI: 249607000.

Date/timePositionNaut miles runAvg speedWind from/ knotsBaromVisibWave heightAir tempDewpointWater temp
2014-Nov-26 14:29N 44°35' E 035°03'5 5.2
2014-Nov-26 13:33N 44°34' E 034°57'5 5.5
2014-Nov-26 12:33N 44°32' E 034°50'6 6.0
2014-Nov-26 11:33N 44°30' E 034°42'6 5.9
2014-Nov-26 10:33N 44°28' E 034°34'6 6.0
2014-Nov-26 09:33N 44°26' E 034°26'6 6.0
2014-Nov-26 08:33N 44°24' E 034°18'6 5.8
2014-Nov-26 07:33N 44°22' E 034°10'266 6.0
2014-Nov-24 11:31N 41°30' E 029°33'16 7.4
2014-Nov-24 09:20N 41°19' E 029°17'22 5.7
2014-Nov-24 05:30N 41°01' E 029°00'5 5.3
2014-Nov-24 04:33N 40°57' E 028°58'3 3.0
2014-Nov-24 03:30N 40°59' E 028°55'0 0.0
2014-Nov-24 02:24N 40°59' E 028°55'0 0.0
2014-Nov-24 01:34N 40°59' E 028°55'0 0.0
2014-Nov-24 00:12N 40°59' E 028°55'0 0.0
2014-Nov-23 22:06N 40°59' E 028°55'0 0.0
2014-Nov-23 21:30N 40°59' E 028°55'0 0.0
2014-Nov-23 20:30N 40°59' E 028°55'0 0.0
2014-Nov-23 19:30N 40°59' E 028°55'0 0.0
2014-Nov-23 18:24N 40°59' E 028°55'0 0.0
2014-Nov-23 17:24N 40°59' E 028°55'0 0.0
2014-Nov-23 16:30N 40°59' E 028°55'0 0.0
2014-Nov-23 15:30N 40°59' E 028°55'0 0.0
2014-Nov-23 14:30N 40°59' E 028°55'0 0.0
2014-Nov-23 13:18N 40°59' E 028°55'0 0.0
2014-Nov-23 12:30N 40°59' E 028°55'0 0.1
2014-Nov-23 11:18N 40°59' E 028°55'0 0.0
2014-Nov-23 09:18N 40°59' E 028°55'0 0.0
2014-Nov-23 08:24N 40°59' E 028°55'2 2.4
2014-Nov-23 07:27N 40°57' E 028°57'4 4.9
2014-Nov-23 06:32N 40°53' E 028°55'7 6.8
2014-Nov-23 05:33N 40°51' E 028°47'  
Track history (hours):
 
Tides and Currents Weather Stations Pressure Air Temp Water Temp Dewpoint Dewpoint Depression Visibility Wind Speed Wind Dir Waves Ship Positions

Cheyenne

Last reported at 2014-Nov-26 14:29 UTC. Time now 2014-Dec-18 12:31 UTC.
Position N 44°35' E 035°03'.
Warning: this ship's position is 21 days out of date.

Length 133 m; draft 3.8 m.

Type: Cargo ship. MMSI: 249607000.

Date/timePositionNaut miles runAvg speedWind from/ knotsBaromVisibWave heightAir tempDewpointWater temp
2014-Nov-26 14:29N 44°35' E 035°03'5 5.2
2014-Nov-26 13:33N 44°34' E 034°57'5 5.5
2014-Nov-26 12:33N 44°32' E 034°50'6 6.0
2014-Nov-26 11:33N 44°30' E 034°42'6 5.9
2014-Nov-26 10:33N 44°28' E 034°34'6 6.0
2014-Nov-26 09:33N 44°26' E 034°26'6 6.0
2014-Nov-26 08:33N 44°24' E 034°18'6 5.8
2014-Nov-26 07:33N 44°22' E 034°10'266 6.0
2014-Nov-24 11:31N 41°30' E 029°33'16 7.4
2014-Nov-24 09:20N 41°19' E 029°17'22 5.7
2014-Nov-24 05:30N 41°01' E 029°00'5 5.3
2014-Nov-24 04:33N 40°57' E 028°58'3 3.0
2014-Nov-24 03:30N 40°59' E 028°55'0 0.0
2014-Nov-24 02:24N 40°59' E 028°55'0 0.0
2014-Nov-24 01:34N 40°59' E 028°55'0 0.0
2014-Nov-24 00:12N 40°59' E 028°55'0 0.0
2014-Nov-23 22:06N 40°59' E 028°55'0 0.0
2014-Nov-23 21:30N 40°59' E 028°55'0 0.0
2014-Nov-23 20:30N 40°59' E 028°55'0 0.0
2014-Nov-23 19:30N 40°59' E 028°55'0 0.0
2014-Nov-23 18:24N 40°59' E 028°55'0 0.0
2014-Nov-23 17:24N 40°59' E 028°55'0 0.0
2014-Nov-23 16:30N 40°59' E 028°55'0 0.0
2014-Nov-23 15:30N 40°59' E 028°55'0 0.0
2014-Nov-23 14:30N 40°59' E 028°55'0 0.0
2014-Nov-23 13:18N 40°59' E 028°55'0 0.0
2014-Nov-23 12:30N 40°59' E 028°55'0 0.1
2014-Nov-23 11:18N 40°59' E 028°55'0 0.0
2014-Nov-23 09:18N 40°59' E 028°55'0 0.0
2014-Nov-23 08:24N 40°59' E 028°55'2 2.4
2014-Nov-23 07:27N 40°57' E 028°57'4 4.9
2014-Nov-23 06:32N 40°53' E 028°55'7 6.8
2014-Nov-23 05:33N 40°51' E 028°47'  

Dump ship's entire track history